Meteo Giornale » Osservazioni meteo Italia » Milano-Linate

ore: 01:50 - Osservazioni Meteo Milano-Linate
Lat. 45° 26' N Lon. 9° 17' E Alt. 107 metri s.l.m.

sereno Europe/Rome

25 °C

Sereno

Temp. 24 Ore

23 °C

33 °C

Ovest

9.3 Km/h

Dew point 18 °C

Umidità 65 %

Visibilità  10 Km

Il sole sorge alle ore 05:33

Il sole tramonta alle ore 21:17

Data e Ora Cielo e Fenomeni T °C DP °C Um. % Pres. hPa Vis. km Vento km/h
Oggi h: 01:50 sereno Sereno 25 18 65 1015 10 O 9.3
Oggi h: 01:20 sereno Sereno 25 18 65 1015 10 O/SO 7.4
Oggi h: 00:50 sereno Sereno 25 18 65 1015 10 N 7.4
Oggi h: 00:20 sereno Sereno 26 18 61 1015 10 O 11.1
Ieri h: 23:50 sereno Sereno 26 17 57 1014 10 O 11.1
Ieri h: 23:20 sereno Sereno 26 18 61 1014 10 O 11.1
Ieri h: 22:50 sereno Sereno 27 18 57 1014 10 O 9.3
Ieri h: 22:20 sereno Sereno 27 18 57 1014 10 O 11.1
Ieri h: 21:50 poco_nuvoloso Poco Nuvoloso 28 18 54 1014 10 O 13
Ieri h: 21:20 poco_nuvoloso Poco Nuvoloso 29 18 51 1014 10 O 13
Ieri h: 20:50 sereno Sereno 30 18 48 1013 10 O/SO 14.8
Ieri h: 20:20 sereno Sereno 30 19 51 1013 10 O/SO 16.7
Ieri h: 19:50 sereno Sereno 31 19 48 1013 10 O/SO 14.8
Ieri h: 19:20 sereno Sereno 32 20 49 1012 10 O/SO 16.7
Ieri h: 18:50 sereno Sereno 32 20 49 1013 10 O/SO 16.7
Ieri h: 18:20 sereno Sereno 33 20 46 1013 10 O/SO 13
Ieri h: 17:20 sereno Sereno 33 20 46 1013 10 O/SO 14.8
Ieri h: 16:50 sereno Sereno 33 20 46 1013 10 O/SO 18.5
Ieri h: 16:20 sereno Sereno 33 20 46 1014 10 O/SO 18.5
Ieri h: 15:50 sereno Sereno 33 21 49 1014 10 O/SO 18.5
Ieri h: 15:20 sereno Sereno 33 21 49 1014 10 O/SO 18.5
Ieri h: 14:50 sereno Sereno 32 21 52 1014 10 O/SO 16.7
Ieri h: 14:20 sereno Sereno 32 21 52 1015 10 N 14.8
Ieri h: 13:50 sereno Sereno 31 20 52 1015 10 O/SO 16.7
Ieri h: 13:20 sereno Sereno 31 21 55 1015 10 O/SO 14.8
Ieri h: 12:50 sereno Sereno 31 21 55 1016 10 O 13
Ieri h: 12:20 sereno Sereno 30 20 55 1016 10 O 14.8
Ieri h: 11:50 sereno Sereno 30 20 55 1016 10 O 14.8
Ieri h: 11:20 sereno Sereno 29 20 58 1016 10 O/SO 16.7
Ieri h: 10:50 sereno Sereno 29 20 58 1017 10 O 13
Ieri h: 10:20 sereno Sereno 28 20 61 1017 10 O/SO 14.8
Ieri h: 09:20 sereno Sereno 27 20 65 1016 10 O/SO 13
Ieri h: 08:50 sereno Sereno 26 20 69 1017 10 O 11.1
Ieri h: 08:20 sereno Sereno 25 20 73 1016 10 O/SO 14.8
Ieri h: 07:50 sereno Sereno 25 20 73 1016 10 N 9.3
Ieri h: 07:20 sereno Sereno 24 19 73 1016 10 O/SO 11.1
Ieri h: 06:50 sereno Sereno 24 19 73 1016 10 O 7.4
Ieri h: 06:20 sereno Sereno 23 19 78 1016 10 N 7.4
Ieri h: 05:50 sereno Sereno 23 19 78 1016 10 N 7.4
Ieri h: 05:20 sereno Sereno 23 19 78 1016 10 N 7.4
Ieri h: 04:50 sereno Sereno 23 19 78 1016 10 O 7.4
Ieri h: 04:20 sereno Sereno 24 19 73 1016 10 O 9.3
Ieri h: 03:50 sereno Sereno 24 18 69 1016 10 O 9.3
Ieri h: 03:20 sereno Sereno 24 18 69 1016 10 O 7.4
Ieri h: 02:50 sereno Sereno 24 18 69 1016 10 O 13